{"data":{"norad_id":67029,"intl_designator":"2025-293AC","name":"STARLINK-36190","alt_names":[],"object_type":"PAYLOAD","status":"ACTIVE","operator":null,"country":"US","launch_date":"2025-12-10","launch_site_code":"AFWTR","launch_vehicle":null,"mission":null,"orbit_class":"UNKNOWN","rcs_meters":null,"size_class":null,"mass_kg":null,"dimensions":null,"purposes":["comms"],"wikipedia_slug":null,"has_3d_model":false,"image_url":null,"decayed_at":null,"tle_current":{"epoch":"2026-05-25T01:32:40.684992Z","epoch_age_seconds":76757,"freshness":"FRESH","line1":"1 67029U 25293AC  26145.06435978  .00003013  00000+0  26013-3 0  9996","line2":"2 67029  70.0014 262.0587 0003597 268.8090  91.2657 14.98335791 26328","mean_motion":14.98335791,"eccentricity":0.0003597,"inclination_deg":70.0014,"raan_deg":262.0587,"arg_perigee_deg":268.809,"mean_anomaly_deg":91.2657,"bstar":0.00026013,"rev_number":2632,"period_min":96.106627676493,"perigee_km":569.53800487098,"apogee_km":574.53796075361,"semimajor_km":6950.1749828123,"source":"CELESTRAK","updated_at":"2026-05-25T13:38:21.435382Z"}}}